Accueil
METAR-TAF:

METAR-TAF

Aéroports :

Lee's Summit Municipal Airport

Lee's Summit, Missouri, États-Unis

latitude: 38-57-35N, longitude: 094-22-18W, altitude: 306 m

Observation

Le bulletin a été fait il y a 29 minutes, à 01:53 UTC
Vent 5 kt de sud/sud-ouest
Température 19°C
Humidité 73%
Pression 1007 hPa
Visibilité: 16.1 km
Ciel clair

METAR: KLXT 080153Z AUTO 21005KT 10SM CLR 19/14 A2975 RMK AO2 SLP068 T01940144

Heure: 21:22 (02:22 UTC)


TAF: absent

Observations et prévisions météorologiques de plus de 4000 aéroports (messages METAR et TAF).

Les stations disponibles sont représentées par des disques jaunes et rouges sur la carte.

Passer la souris dessus pour voir le nom de la station.

Cliquer dessus pour voir les observations et prévisions météorologiques.

Pour changer de carte: cliquez sur les boutons verts avec une croix noire pour zoomer, sur le bouton vert avec un tiret pour effectuer un zoom arrière, ou sur les flèches vertes pour les cartes adjacentes.


METAR-TAF: